Theta_e
324 331 338 341 343 344 344 347 347 347 347 348 348 347 348 348 348 348 349 349 348 348 349 348 349 350 350 349 348 348 348 348 348 347 346 344 349 353 354 354 352 351 355
323 330 336 337 338 340 342 343 345 345 345 346 345 344 344 345 345 344 344 345 346 347 347 347 348 349 349 348 348 349 348 351 350 348 348 346 344 353 354 354 353 352 354
322 329 329 333 335 336 337 339 339 340 341 342 344 343 342 343 343 343 342 342 342 344 346 346 347 347 346 347 347 347 347 349 348 348 346 343 335 352 354 354 353 354 353
321 324 325 331 330 332 334 334 335 336 337 338 338 339 337 335 335 336 337 336 337 338 340 341 342 340 340 342 344 345 346 346 347 344 339 341 334 348 353 353 354 355 354
318 321 323 328 327 328 329 328 329 331 331 332 334 331 330 331 331 331 331 330 330 332 334 336 336 335 334 336 339 341 343 344 345 340 335 336 340 345 349 350 352 352 350
316 318 322 325 324 324 324 324 324 324 325 327 325 324 322 323 323 322 322 322 322 323 325 330 330 329 329 330 332 334 334 334 336 336 332 335 339 347 347 347 349 349 349
312 314 315 321 321 321 321 321 320 319 319 320 319 318 317 317 317 317 317 318 318 318 319 321 320 320 320 322 325 326 325 325 325 331 334 332 334 346 345 346 347 348 349
310 312 312 316 318 317 317 317 317 316 316 315 314 314 314 314 314 314 315 316 316 316 316 317 316 316 317 317 317 318 318 319 317 319 329 331 336 345 344 347 347 347 348
304 307 307 307 310 313 312 312 314 313 313 311 310 310 310 309 309 310 310 313 313 313 314 315 315 315 315 314 314 313 313 316 310 312 323 330 336 343 341 344 345 344 345
300 301 302 303 305 304 303 309 310 310 309 307 307 305 304 308 307 307 305 308 310 310 311 312 312 312 312 312 312 317 315 316 306 315 320 324 334 337 342 343 344 342 343
299 299 300 300 300 302 302 304 306 306 305 305 305 305 307 301 300 301 305 306 307 308 309 309 310 310 309 309 310 314 313 303 302 304 307 320 328 328 334 339 341 341 342
296 297 298 299 299 300 300 299 299 300 300 300 300 300 300 299 298 301 304 306 305 305 306 306 307 306 304 300 300 305 301 302 302 302 303 317 316 320 324 328 334 338 339
296 297 297 298 298 297 296 299 298 299 298 298 298 298 299 299 297 297 296 296 297 301 297 298 298 298 297 298 299 299 300 300 300 301 305 313 313 316 317 319 323 329 334
298 297 296 297 297 297 298 298 298 297 297 297 296 296 296 295 294 294 294 294 294 294 293 293 294 295 295 297 297 297 298 299 299 300 302 310 311 313 315 317 319 320 323
298 297 295 295 296 298 296 296 297 295 296 296 296 294 294 294 292 293 292 292 292 292 291 291 292 293 293 295 296 296 296 296 296 298 299 307 310 311 313 316 317 319 321
299 297 296 295 296 297 296 295 296 295 295 295 294 293 293 292 290 291 291 291 291 291 290 291 291 291 292 293 294 295 295 295 296 296 297 299 309 310 310 313 315 317 319
300 297 295 295 296 295 295 295 295 294 295 293 293 293 291 291 290 289 289 289 290 290 289 289 290 290 290 292 291 293 294 294 295 295 296 297 299 306 309 310 312 314 316
298 296 295 297 295 294 294 294 294 292 292 292 292 291 291 291 290 288 288 288 289 289 288 288 288 288 288 289 289 290 291 293 293 294 294 295 297 299 303 307 308 310 312
297 295 294 293 293 293 293 293 292 292 291 291 290 290 290 290 290 288 287 287 288 287 287 288 287 287 286 287 289 290 289 289 291 293 293 295 296 298 298 303 309 310 310
296 294 294 293 292 293 292 290 290 290 290 289 288 289 289 289 289 287 287 287 287 286 286 287 286 286 286 287 289 288 288 290 290 290 291 294 296 297 298 299 300 302 310
295 293 293 292 291 292 290 288 287 288 288 287 289 289 289 288 288 286 285 285 285 285 285 286 286 285 285 286 285 285 286 288 288 290 291 292 294 294 295 297 298 299 301
294 293 292 292 292 292 291 289 288 288 288 287 288 288 288 288 287 286 285 284 284 283 284 284 285 284 284 285 282 282 280 283 287 287 288 289 291 293 295 295 293 294 296
293 292 292 292 292 292 290 289 287 286 286 285 285 286 287 287 286 286 284 284 283 283 283 283 283 283 281 283 283 282 279 278 282 285 286 287 287 288 289 291 294 293 293
293 292 292 292 291 291 290 288 286 284 282 284 285 286 286 286 285 285 285 284 283 283 282 283 284 282 281 280 282 285 283 283 279 279 283 285 286 287 288 289 290 292 291
292 292 292 291 291 290 289 288 286 283 284 285 284 284 283 284 284 283 284 283 282 282 282 282 282 281 281 280 280 280 280 281 282 280 278 280 284 285 287 287 288 289 290
292 291 291 290 290 290 288 287 286 285 284 283 282 282 282 282 282 282 283 281 281 281 280 281 281 281 280 280 280 280 280 279 279 278 278 278 279 282 284 286 286 287 288
Wind_Speed
5 9 8 9 9 10 11 13 11 9 9 10 12 13 14 14 14 15 14 10 8 7 8 9 10 11 11 9 10 9 7 7 9 11 11 10 9 7 6 4 4 4 6
8 10 10 9 9 11 12 13 14 13 13 12 12 12 12 12 13 13 13 13 12 10 10 9 10 11 12 11 11 11 10 9 7 8 10 10 12 9 5 1 2 3 10
6 10 9 11 11 12 10 13 12 11 12 11 13 14 13 14 14 13 14 14 12 13 13 12 13 14 14 12 11 10 11 10 9 8 11 6 7 4 4 1 3 4 6
6 9 8 10 12 12 12 12 11 10 8 9 10 11 12 9 9 10 12 12 12 12 12 12 13 14 14 14 12 11 11 10 9 10 6 7 4 8 7 6 5 6 6
6 9 7 10 11 12 13 12 11 12 11 10 12 11 10 11 12 12 12 11 12 13 13 11 12 13 12 12 13 14 15 15 11 9 7 5 4 6 9 9 8 9 9
7 8 7 10 11 11 12 11 11 11 11 11 11 11 11 11 12 12 12 11 12 13 13 12 13 13 13 13 13 13 12 13 14 7 7 6 4 5 7 8 9 10 9
8 8 6 9 10 11 10 10 10 11 11 10 11 11 11 12 11 12 13 13 13 13 13 13 13 14 14 13 13 12 11 12 7 6 6 7 6 5 6 7 8 10 11
8 8 7 7 9 10 10 10 10 10 10 10 10 11 11 12 12 12 14 13 14 14 14 14 14 13 14 14 14 13 14 13 8 6 8 6 8 9 9 7 7 9 11
9 7 8 8 8 10 9 9 9 10 10 10 10 9 10 10 11 12 13 13 14 15 15 15 15 16 16 14 13 13 13 14 8 6 8 5 8 11 7 8 8 11 12
8 8 7 8 7 7 6 9 10 10 10 10 9 6 2 6 10 12 12 12 13 15 13 15 15 16 16 15 13 11 12 15 7 5 5 5 12 15 13 11 10 12 13
7 8 8 8 7 8 8 7 10 12 10 8 7 3 3 5 6 6 7 10 11 13 13 15 15 15 17 16 17 17 14 5 8 6 5 12 17 16 14 15 14 14 15
9 7 7 8 7 7 7 7 7 6 4 5 5 5 3 5 2 4 6 11 12 14 15 16 16 16 12 5 5 11 5 8 5 5 5 15 19 18 17 17 19 19 18
9 7 8 8 7 7 5 5 3 3 3 4 6 3 3 4 3 3 3 3 4 9 5 8 7 5 7 6 6 5 5 5 4 4 7 18 22 21 20 20 19 20 22
13 11 10 9 8 8 5 5 5 4 4 3 4 3 3 3 3 3 3 4 4 4 6 5 4 6 7 8 7 8 6 5 4 4 5 12 16 20 21 20 20 22 23
14 13 12 9 8 7 7 4 5 5 4 5 5 3 3 4 3 3 3 3 3 4 4 5 5 5 6 6 6 6 7 7 7 4 3 11 16 19 20 21 21 21 23
13 13 13 10 9 8 6 7 5 5 6 5 5 5 4 4 3 3 3 3 4 4 4 4 4 4 5 5 6 7 7 8 8 8 7 6 14 17 19 21 21 21 22
12 12 14 11 10 9 8 7 6 5 6 5 5 6 5 4 4 3 3 3 3 3 3 4 4 4 5 5 6 7 7 8 9 9 8 6 6 11 15 18 20 21 22
10 14 12 12 10 9 7 6 5 5 5 5 5 5 6 5 5 3 2 2 3 3 3 4 4 4 5 5 5 6 6 7 10 11 9 6 5 5 6 14 19 22 22
10 12 13 10 10 9 8 6 6 7 5 5 5 5 6 5 4 3 2 2 3 2 3 3 3 4 5 6 7 7 8 9 10 9 10 7 7 6 4 8 13 14 18
12 11 12 9 9 9 6 5 5 5 4 5 5 5 7 5 5 3 2 3 3 2 3 3 4 3 4 6 8 10 9 10 8 7 7 7 6 6 5 6 5 4 11
13 14 14 13 11 10 7 6 4 6 4 4 4 7 7 5 5 4 3 3 3 2 2 3 3 6 4 4 5 5 10 10 8 4 4 5 6 6 5 4 4 3 5
16 14 15 15 14 11 9 6 4 6 4 4 4 6 6 7 6 5 5 3 1 0 3 3 4 3 3 2 3 6 5 6 3 10 10 5 6 4 5 6 7 9 6
16 18 17 17 16 14 11 7 3 4 4 3 5 5 5 7 6 5 5 4 2 0 2 2 3 4 3 3 3 3 5 4 9 4 7 6 5 4 6 9 6 9 11
14 14 16 16 16 14 12 11 11 8 7 5 5 5 6 8 7 7 6 4 3 2 3 3 3 2 2 4 3 4 2 4 5 11 3 6 9 10 6 7 9 6 10
12 14 14 14 15 15 14 14 11 7 5 5 5 9 6 6 7 7 6 5 3 2 3 3 4 5 3 3 3 2 2 3 5 6 18 6 7 9 9 9 10 9 11
11 12 14 15 15 14 14 13 15 14 9 9 7 7 5 5 5 7 7 6 5 4 3 3 3 5 5 5 3 3 4 4 4 4 8 17 16 11 9 10 11 11 10
Wind_Direction
94 92 69 68 68 71 67 68 72 77 76 71 64 56 48 47 51 47 42 39 41 22 20 17 16 15 25 16 10 8 12 8 355 355 353 335 311 293 286 312 328 302 293
97 89 69 76 77 70 64 54 56 60 64 62 67 60 51 46 43 44 39 34 34 32 27 23 16 15 17 13 11 8 11 13 354 346 332 317 300 262 246 285 345 324 327
108 115 80 81 81 76 76 74 66 66 60 62 67 68 63 52 49 48 47 39 33 29 28 27 30 27 18 14 5 0 360 3 4 344 321 292 281 293 139 83 354 325 305
116 85 84 88 91 93 94 86 79 83 93 78 78 74 65 57 57 48 44 38 32 27 23 18 22 21 15 6 3 358 354 356 354 340 309 309 352 348 42 18 348 333 309
111 103 94 100 99 95 93 90 90 90 85 85 80 74 74 69 63 59 52 44 34 28 26 22 19 18 17 9 7 5 2 353 337 320 295 322 9 325 357 0 349 343 334
113 103 93 102 100 100 99 99 96 94 91 89 83 78 70 66 59 56 49 39 33 30 22 24 18 13 7 8 7 0 358 350 336 318 316 318 320 325 351 349 343 337 321
118 116 98 116 118 113 108 105 100 94 89 87 85 78 71 61 54 49 41 35 32 28 22 21 11 4 359 357 354 351 350 347 343 308 299 291 283 268 305 317 324 323 325
124 116 123 109 114 110 108 110 107 103 96 89 81 76 69 65 56 47 40 35 32 26 23 18 12 5 356 349 344 342 339 337 324 307 304 304 302 298 287 313 322 323 320
132 148 152 140 115 107 105 110 111 105 97 89 83 78 74 65 59 49 38 30 28 20 15 12 7 1 355 350 347 340 334 319 304 276 276 275 283 295 286 290 305 311 315
151 161 157 134 150 132 119 122 123 118 110 101 94 89 94 74 52 57 33 24 27 18 16 11 6 359 354 346 351 337 318 316 306 311 339 327 336 340 334 308 309 303 303
168 173 159 162 165 141 138 143 134 133 133 130 118 72 57 67 36 68 43 31 31 19 20 11 7 359 6 355 348 354 346 350 347 338 327 311 332 330 321 317 307 302 300
182 187 167 168 168 159 155 163 164 162 136 105 84 72 47 84 70 50 42 36 17 26 17 12 7 7 358 342 339 345 341 336 333 330 321 322 328 322 317 314 309 302 298
181 177 178 171 170 164 147 151 154 139 131 110 90 86 82 85 45 40 40 20 12 22 15 9 0 356 351 345 337 332 328 327 321 324 330 327 320 318 312 307 303 300 295
185 179 175 174 165 171 150 158 158 135 136 127 110 82 99 87 62 47 48 28 26 20 15 5 357 349 340 337 335 326 323 321 315 307 294 303 311 309 306 305 302 297 292
188 178 170 167 164 161 153 180 154 136 142 133 124 91 78 98 76 63 56 43 29 31 19 355 345 341 332 318 316 316 316 316 307 297 286 293 301 305 306 305 304 300 295
184 176 164 167 163 155 174 164 155 151 142 140 130 124 93 107 98 73 62 38 39 35 1 338 327 320 312 313 318 313 309 309 298 296 293 293 295 299 301 303 301 298 296
188 163 165 162 163 159 176 160 152 151 150 142 130 130 133 100 93 76 73 55 57 25 349 333 326 336 321 318 311 307 302 295 294 285 285 285 292 295 292 297 303 304 301
172 168 159 167 166 159 164 156 147 144 143 140 139 149 141 126 110 103 105 76 46 20 355 348 331 330 316 311 307 297 279 282 281 285 285 279 282 291 304 302 299 297 299
171 164 163 157 161 159 155 155 144 151 146 149 147 148 150 137 134 136 122 82 54 19 354 337 341 333 317 315 307 305 298 287 278 281 281 282 265 263 258 272 283 284 292
162 156 156 156 155 157 146 142 130 137 158 149 160 156 145 146 152 140 105 75 66 29 353 353 329 303 295 299 311 302 293 283 287 286 273 275 273 279 281 265 264 264 275
153 157 160 159 167 164 159 154 153 171 172 163 167 151 152 157 164 150 120 81 49 35 315 308 287 297 303 308 322 317 289 279 278 294 319 312 294 269 295 304 310 304 297
161 160 164 170 175 175 168 166 156 157 181 160 155 157 169 161 170 147 127 123 131 5 315 307 298 318 291 344 330 295 314 303 19 322 305 300 310 322 323 350 323 311 308
166 171 174 175 177 178 166 158 118 99 96 125 165 166 170 161 154 156 149 153 165 10 280 288 316 309 300 316 299 258 323 303 332 272 294 290 314 325 309 309 314 313 297
177 173 177 178 180 179 169 166 168 169 164 190 167 159 163 162 171 167 155 151 168 196 268 267 264 267 268 264 308 250 274 313 329 316 260 333 297 278 283 303 293 306 311
172 178 181 181 185 181 181 174 169 176 172 155 143 145 155 166 172 165 160 157 172 202 234 277 295 273 252 255 228 272 262 260 256 267 299 288 296 304 298 297 291 291 287
171 176 183 187 191 184 179 178 180 178 170 152 150 157 167 177 175 171 165 160 177 194 232 235 270 280 276 269 260 255 249 255 271 285 289 298 296 294 290 287 283 280 278